Regional Weather Roundup
Issued by NWS Bismarck, ND

Home | Current Version | Previous Version | Text Only | Print | Product List | Glossary On
Versions: 1 2 3 4 5 6 7 8 9 10 11 12 13 14 15 16 17 18 19 20 21 22 23 24 25 26 27 28 29 30 31 32 33 34 35 36 37 38 39 40 41 42 43 44 45 46 47 48 49 50
000
ASUS43 KBIS 300120
RWRBIS

NWR BROADCAST TEXT
NATIONAL WEATHER SERVICE BISMARCK ND
800 PM CDT SUN MAR 29 2015

NOTE: "FAIR" INDICATES FEW OR NO CLOUDS BELOW 12,000 FEET WITH NO
SIGNIFICANT WEATHER AND/OR OBSTRUCTIONS TO VISIBILITY.


CITY           SKY/WX    TMP DP  RH WIND       PRES   REMARKS
WILLISTON      MOCLDY    53  35  50 SW6       29.91F
MINOT          CLEAR     48  31  51 NW8       29.92S
MINOT AFB      CLEAR     50  37  59 N6        29.91S
BISMARCK       CLEAR     55  27  34 NW13      29.97S
DICKINSON      PTCLDY    50  30  46 W3        29.95F
GARRISON         N/A     53  33  46 NW9       29.93F
HETTINGER ARPT MOCLDY    52  30  43 W5        30.00F
JAMESTOWN      PTCLDY    50  29  44 W9        29.93S
BEACH          FAIR      50  30  46 W5        29.98F
CARRINGTON     FAIR      48  28  46 NW12      29.93S
CROSBY         MOCLDY    54  34  47 SW5       29.89F
HARVEY         FAIR      46  32  57 NW8       29.93R
HAZEN          FAIR      48  28  46 CALM      29.96F
LINTON         FAIR      50  34  53 NW7       29.98R
MANDAN         FAIR      50  28  43 NW9       29.98R
OAKES            N/A     46  32  57 W7        29.97S
RUGBY          FAIR      43  34  70 NW10      29.92S
TIOGA          MOCLDY    50  32  50 W6        29.94F
WATFORD CITY   FAIR      50  32  50 W5        29.92F
$$

CITY           SKY/WX    TMP DP  RH WIND       PRES   REMARKS
GRAND FORKS    PTCLDY    48  31  51 W10       29.88S
GRAND FORKS AF PTCLDY    49  32  52 NW6       29.89S
DEVILS LAKE    CLEAR     45  30  57 NW7       29.91R
FARGO          CLOUDY    50  28  42 NW9       29.91S
CANDO          FAIR      41  32  70 NW7       29.91S
CAVALIER       FAIR      46  30  53 NW8       29.87S
GWINNER        CLEAR     46  32  57 W8          N/A
ROLLA          FAIR      43  36  75 NW7       29.91S
WALHALLA         N/A     46  32  57 W8        29.87S
$$

CITY           SKY/WX    TMP DP  RH WIND       PRES   REMARKS
ABERDEEN       CLEAR     50  23  34 NW8       30.00S
MOBRIDGE       CLEAR     53  30  41 NW3       29.97S
BUFFALO          N/A     54  27  35 W10       29.96F
RAPID CITY     CLOUDY    57  28  33 NE3       30.05F
GLASGOW        PTCLDY    58  30  34 W15       29.92S
SIDNEY         CLOUDY    55  30  38 W6        29.94F
WOLF POINT     CLOUDY    60  33  36 W10       29.92F
GLENDIVE         N/A     55  30  38 W13       29.97S
MILES CITY     MOCLDY    59  27  29 W9        29.99S
BAKER          PTCLDY    54  30  40 W10       30.00F
$$

CITY           SKY/WX    TMP DP  RH WIND       PRES   REMARKS
BILLINGS       MOCLDY    61  18  18 N8        30.02S
GREAT FALLS    CLOUDY    55  28  35 SW18G28   30.01S
REGINA         MOCLDY    50  37  62 SE8       29.85F
ESTEVAN        CLOUDY    50  34  53 NE7       29.89F
$$



USA.gov is the U.S. government's official web portal to all federal, state and local government web resources and services.